Miscellaneous Local Product
Issued by NWS Hastings, NE

Home | Current Version | Previous Version | Graphics & Text | Print | Product List | Glossary On
Versions: 1 2 3 4 5 6 7 8 9 10 11 12 13 14 15 16 17 18 19 20 21 22 23 24 25 26 27 28 29 30 31 32 33 34 35 36 37 38 39 40 41 42 43 44 45 46 47 48 49 50
000
AXUS43 KGID 280602
MISGRI

GID CWA HOURLY WEATHER ROUNDUP
NATIONAL WEATHER SERVICE HASTINGS NE
100 AM CDT TUE JUL 28 2015

NOTE: "FAIR" INDICATES FEW OR NO CLOUDS BELOW 12,000 FEET WITH NO
SIGNIFICANT WEATHER AND/OR OBSTRUCTIONS TO VISIBILITY.

...SOUTH CENTRAL NEBRASKA...

CITY           SKY/WX    TMP DP  RH WIND       PRES   REMARKS
GRAND ISLAND   CLEAR     80  67  64 S21G28    29.78F
HASTINGS       CLEAR     80  65  59 S10       29.79F
KEARNEY        CLEAR     79  64  61 S16       29.77S
ORD            CLEAR     80  70  71 SE14      29.73F
YORK           PTCLDY    79  70  73 S12       29.81S
AURORA         CLEAR     81  68  65 S17       29.79S
LEXINGTON      CLEAR     82  67  60 S15G25    29.75F
HOLDREGE       CLEAR     80  65  61 S16G23    29.77S
HEBRON         CLEAR     82  66  57 S17G23    29.81S

...NEBRASKA PANHANDLE...

CITY           SKY/WX    TMP DP  RH WIND       PRES   REMARKS
CHADRON        CLEAR     70  56  61 W17G26    29.83R
ALLIANCE       MOCLDY    66  59  78 W10       29.85R
SCOTTSBLUFF    CLEAR     68  52  56 NW9       29.87R
SIDNEY         PTCLDY    76  51  41 NW18      29.85R

...WESTERN AND NORTH CENTRAL NEBRASKA...

CITY           SKY/WX    TMP DP  RH WIND       PRES   REMARKS
VALENTINE      LGT RAIN  77  67  71 N17G28    29.73R
AINSWORTH      CLOUDY    81  71  71 S21G29    29.76R
ONEILL         CLEAR     79  74  84 SE18      29.73F
BROKEN BOW     CLEAR     82  67  60 S13G25    29.74S
IMPERIAL       CLEAR     80  67  64 S14       29.75R
NORTH PLATTE   CLEAR     80  67  64 S14       29.71S
MCCOOK         CLEAR     82  69  64 S17G28    29.73S

...EASTERN NEBRASKA...

CITY           SKY/WX    TMP DP  RH WIND       PRES   REMARKS
NORFOLK        CLOUDY    78  74  87 SE15      29.76F
SO SIOUX CITY  PTCLDY    75  69  81 SE14      29.79F
TEKAMAH        MOCLDY    76  71  85 SE8       29.82F
COLUMBUS       CLEAR     81  72  74 SE8       29.79S
ALBION         CLEAR     79  72  78 SE12G20   29.77F
OMAHA EPPLEY   MOCLDY    78  71  79 SE16      29.83F
OFFUTT AFB     PTCLDY    75  71  86 SE9       29.83F
MILLARD        PTCLDY    77  72  83 SE9       29.84S
LINCOLN        CLEAR     79  76  90 SE8       29.82F
NEBRASKA CITY  CLEAR     75  73  93 SE10      29.85F
BEATRICE       CLEAR     80  72  75 S13       29.83F
FALLS CITY     CLEAR     75  73  93 SE7       29.85F

...NORTHERN KANSAS...

CITY           SKY/WX    TMP DP  RH WIND       PRES   REMARKS
GOODLAND       CLEAR     79  64  60 S20G26    29.81S
HILL CITY      CLEAR     82  69  64 S16G24    29.78F
NORTON         CLEAR     79  63  57 S14G21    29.77S
PHILLIPSBURG   CLEAR     84  70  61 SE8       29.78F
SMITH CENTER   CLEAR     79  68  69 SE12      29.80S
HAYS           CLEAR     82  66  57 S22G28    29.81S
RUSSELL        CLEAR     82  70  66 S22G30    29.80S
CONCORDIA      CLEAR     81  69  67 S15       29.81F
SALINA         CLEAR     85  67  54 S15G23    29.82F
TOPEKA         CLEAR     83  73  72 S9        29.87S



USA.gov is the U.S. government's official web portal to all federal, state and local government web resources and services.